RPB7403 SVMI-SKRG

Flight info

Callsign RPB7403
Flight time 1h 33m
Altitude 36000
Route MARES1 MARES DCT PBL UW40 BRM UW8 LFA UW34 CUC UW26 MRN MRN3D
Aircraft B738/M-SDE2E3FGHIRWXY/LB1

Departure

Time 2026-04-28 15:16
Airport Maiquetía Simón Bolívar International Airport (SVMI)

Arrival

Time 2026-04-28 16:49
Airport Jose Maria Córdova International Airport (SKRG)
Time Latitude Longitude Altitude Speed Heading
2026-04-28 14:57 10.59812 -67.00842 211 ft 0 kts 178°
2026-04-28 15:08 10.59817 -67.00842 233 ft 2 kts 176°
2026-04-28 15:08 10.59833 -67.00843 238 ft 2 kts 177°
2026-04-28 15:08 10.59850 -67.00844 238 ft 2 kts 178°
2026-04-28 15:08 10.59867 -67.00844 238 ft 2 kts 179°
2026-04-28 15:09 10.59884 -67.00845 236 ft 2 kts 179°
2026-04-28 15:09 10.59900 -67.00845 234 ft 2 kts 181°
2026-04-28 15:09 10.59917 -67.00844 239 ft 2 kts 184°
2026-04-28 15:09 10.59928 -67.00843 238 ft 2 kts 188°
2026-04-28 15:10 10.59949 -67.00838 237 ft 2 kts 200°
2026-04-28 15:10 10.59964 -67.00831 238 ft 2 kts 214°
2026-04-28 15:10 10.59977 -67.00821 237 ft 2 kts 231°
2026-04-28 15:10 10.59985 -67.00808 234 ft 2 kts 248°
2026-04-28 15:11 10.59987 -67.00801 235 ft 1 kts 257°
2026-04-28 15:11 10.59988 -67.00799 234 ft 0 kts 258°
2026-04-28 15:11 10.59988 -67.00802 235 ft 0 kts 266°
2026-04-28 15:12 10.59988 -67.00806 234 ft 2 kts 269°
2026-04-28 15:12 10.59987 -67.00839 236 ft 7 kts 269°
2026-04-28 15:12 10.59985 -67.00904 234 ft 11 kts 268°
2026-04-28 15:13 10.59982 -67.00996 236 ft 15 kts 268°
2026-04-28 15:13 10.59979 -67.01101 238 ft 15 kts 269°
2026-04-28 15:13 10.59976 -67.01199 240 ft 11 kts 268°
2026-04-28 15:13 10.59991 -67.01232 240 ft 4 kts 326°
2026-04-28 15:14 10.60028 -67.01241 240 ft 7 kts 354°
2026-04-28 15:14 10.60097 -67.01245 240 ft 13 kts 358°
2026-04-28 15:14 10.60205 -67.01248 237 ft 19 kts 359°
2026-04-28 15:14 10.60346 -67.01252 240 ft 20 kts 358°
2026-04-28 15:15 10.60369 -67.01244 240 ft 3 kts 51°
2026-04-28 15:15 10.60378 -67.01219 240 ft 12 kts 77°
2026-04-28 15:15 10.60400 -67.00645 230 ft 109 kts 88°
2026-04-28 15:15 10.60430 -66.99667 246 ft 164 kts 88°
2026-04-28 15:16 10.60481 -66.98480 836 ft 168 kts 87°
2026-04-28 15:16 10.60525 -66.97253 1549 ft 181 kts 77°
2026-04-28 15:16 10.61337 -66.96307 2174 ft 194 kts 19°
2026-04-28 15:16 10.62739 -66.96148 2873 ft 202 kts
2026-04-28 15:17 10.64130 -66.96050 3672 ft 207 kts 353°
2026-04-28 15:17 10.65430 -66.96754 4004 ft 228 kts 312°
2026-04-28 15:17 10.66132 -66.98303 4001 ft 255 kts 276°
2026-04-28 15:17 10.66402 -67.00093 4006 ft 258 kts 281°
2026-04-28 15:18 10.66786 -67.01892 3985 ft 259 kts 281°
2026-04-28 15:18 10.67166 -67.03677 3988 ft 267 kts 281°
2026-04-28 15:18 10.67554 -67.05583 4455 ft 282 kts 281°
2026-04-28 15:18 10.68010 -67.07529 5367 ft 282 kts 291°
2026-04-28 15:19 10.69075 -67.09219 6198 ft 286 kts 309°
2026-04-28 15:19 10.70350 -67.10781 6927 ft 292 kts 310°
2026-04-28 15:19 10.71684 -67.12387 7593 ft 300 kts 310°
2026-04-28 15:19 10.73033 -67.14027 8308 ft 305 kts 310°
2026-04-28 15:20 10.74400 -67.15706 9117 ft 309 kts 310°
2026-04-28 15:20 10.75769 -67.17397 9907 ft 312 kts 310°
2026-04-28 15:20 10.77150 -67.19156 10491 ft 324 kts 303°
2026-04-28 15:20 10.78048 -67.21302 10671 ft 347 kts 280°
2026-04-28 15:21 10.78105 -67.23808 10889 ft 363 kts 258°
2026-04-28 15:21 10.77412 -67.26304 11355 ft 370 kts 249°
2026-04-28 15:21 10.76545 -67.28767 11905 ft 376 kts 248°
2026-04-28 15:21 10.75641 -67.31229 12664 ft 375 kts 248°
2026-04-28 15:22 10.74725 -67.33714 13225 ft 381 kts 248°
2026-04-28 15:22 10.73797 -67.36256 13831 ft 385 kts 248°
2026-04-28 15:22 10.72868 -67.38826 14430 ft 386 kts 248°
2026-04-28 15:22 10.71944 -67.41408 14956 ft 390 kts 248°
2026-04-28 15:23 10.71028 -67.43982 15529 ft 392 kts 248°
2026-04-28 15:23 10.70097 -67.46606 16047 ft 396 kts 249°
2026-04-28 15:23 10.69156 -67.49264 16573 ft 399 kts 248°
2026-04-28 15:23 10.68208 -67.51945 17115 ft 402 kts 249°
2026-04-28 15:24 10.67267 -67.54606 17622 ft 405 kts 249°
2026-04-28 15:24 10.66303 -67.57332 18137 ft 408 kts 249°
2026-04-28 15:24 10.65350 -67.60025 18587 ft 410 kts 249°
2026-04-28 15:24 10.64386 -67.62751 19076 ft 411 kts 249°
2026-04-28 15:25 10.63412 -67.65503 19530 ft 413 kts 249°
2026-04-28 15:25 10.62764 -67.67333 19812 ft 415 kts 249°
2026-04-28 15:25 10.61460 -67.71017 20407 ft 417 kts 249°
2026-04-28 15:25 10.60477 -67.73790 20856 ft 419 kts 249°
2026-04-28 15:26 10.59488 -67.76578 21266 ft 421 kts 249°
2026-04-28 15:26 10.58822 -67.78458 21560 ft 422 kts 249°
2026-04-28 15:26 10.57831 -67.81250 21977 ft 424 kts 249°
2026-04-28 15:26 10.56822 -67.84093 22379 ft 426 kts 249°
2026-04-28 15:27 10.55482 -67.87867 22898 ft 429 kts 249°
2026-04-28 15:27 10.54809 -67.89765 23160 ft 430 kts 249°
2026-04-28 15:27 10.53456 -67.93574 23659 ft 432 kts 249°
2026-04-28 15:27 10.52774 -67.95493 23858 ft 434 kts 249°
2026-04-28 15:28 10.51737 -67.98412 24168 ft 436 kts 249°
2026-04-28 15:28 10.50712 -68.01296 24490 ft 437 kts 249°
2026-04-28 15:28 10.49676 -68.04209 24778 ft 439 kts 249°
2026-04-28 15:28 10.48642 -68.07116 25079 ft 440 kts 249°
2026-04-28 15:29 10.47602 -68.10069 25373 ft 442 kts 249°
2026-04-28 15:29 10.46581 -68.13022 25680 ft 444 kts 249°
2026-04-28 15:29 10.45565 -68.15984 25957 ft 445 kts 249°
2026-04-28 15:29 10.44554 -68.18939 26228 ft 447 kts 249°
2026-04-28 15:30 10.43532 -68.21921 26522 ft 449 kts 249°
2026-04-28 15:30 10.42510 -68.24900 26780 ft 451 kts 249°
2026-04-28 15:30 10.41467 -68.27936 27046 ft 452 kts 249°
2026-04-28 15:30 10.40419 -68.30980 27328 ft 454 kts 249°
2026-04-28 15:31 10.39361 -68.34049 27586 ft 455 kts 249°
2026-04-28 15:31 10.38326 -68.37049 27813 ft 458 kts 249°
2026-04-28 15:31 10.37264 -68.40128 28052 ft 459 kts 249°
2026-04-28 15:31 10.36214 -68.43172 28300 ft 461 kts 249°
2026-04-28 15:32 10.35149 -68.46258 28569 ft 462 kts 249°
2026-04-28 15:32 10.34093 -68.49316 28785 ft 464 kts 249°
2026-04-28 15:32 10.33014 -68.52439 29000 ft 466 kts 249°
2026-04-28 15:32 10.31950 -68.55518 29221 ft 467 kts 249°
2026-04-28 15:33 10.30868 -68.58650 29444 ft 468 kts 249°
2026-04-28 15:33 10.29784 -68.61785 29662 ft 470 kts 249°
2026-04-28 15:33 10.28703 -68.64912 29861 ft 471 kts 249°
2026-04-28 15:33 10.27611 -68.68067 30085 ft 472 kts 249°
2026-04-28 15:34 10.26523 -68.71214 30414 ft 469 kts 249°
2026-04-28 15:34 10.25448 -68.74321 30849 ft 464 kts 249°
2026-04-28 15:34 10.24377 -68.77414 31210 ft 461 kts 249°
2026-04-28 15:34 10.23328 -68.80442 31506 ft 460 kts 249°
2026-04-28 15:35 10.22263 -68.83515 31800 ft 458 kts 249°
2026-04-28 15:35 10.20154 -68.89595 32446 ft 455 kts 249°
2026-04-28 15:35 10.19104 -68.92623 32791 ft 452 kts 249°
2026-04-28 15:36 10.18069 -68.95608 33118 ft 450 kts 249°
2026-04-28 15:36 10.17029 -68.98602 33439 ft 449 kts 249°
2026-04-28 15:36 10.15988 -69.01600 33756 ft 448 kts 249°
2026-04-28 15:36 10.14953 -69.04580 34091 ft 446 kts 249°
2026-04-28 15:37 10.13926 -69.07535 34396 ft 444 kts 249°
2026-04-28 15:37 10.12894 -69.10504 34633 ft 443 kts 249°
2026-04-28 15:37 10.11872 -69.13444 34845 ft 443 kts 249°
2026-04-28 15:37 10.10842 -69.16405 35084 ft 442 kts 250°
2026-04-28 15:38 10.09832 -69.19309 35366 ft 441 kts 250°
2026-04-28 15:38 10.08813 -69.22238 35629 ft 439 kts 250°
2026-04-28 15:38 10.07802 -69.25143 35870 ft 438 kts 250°
2026-04-28 15:38 10.06778 -69.28086 36041 ft 437 kts 250°
2026-04-28 15:39 10.04759 -69.33878 36040 ft 438 kts 250°
2026-04-28 15:39 10.02212 -69.39490 36044 ft 439 kts 242°
2026-04-28 15:40 9.99348 -69.45015 36042 ft 439 kts 242°
2026-04-28 15:40 9.96516 -69.50489 36034 ft 440 kts 242°
2026-04-28 15:41 9.93695 -69.55992 36041 ft 441 kts 242°
2026-04-28 15:41 9.90877 -69.61511 36042 ft 441 kts 242°
2026-04-28 15:42 9.88052 -69.67046 36042 ft 441 kts 242°
2026-04-28 15:42 9.85230 -69.72572 36043 ft 441 kts 242°
2026-04-28 15:43 9.82403 -69.78103 36044 ft 440 kts 242°
2026-04-28 15:43 9.79593 -69.83599 36042 ft 439 kts 242°
2026-04-28 15:44 9.76768 -69.89120 36047 ft 439 kts 242°
2026-04-28 15:44 9.73975 -69.94578 36052 ft 438 kts 242°
2026-04-28 15:45 9.71151 -70.00093 36058 ft 439 kts 242°
2026-04-28 15:45 9.68360 -70.05540 36065 ft 438 kts 242°
2026-04-28 15:46 9.65555 -70.11013 36075 ft 438 kts 242°
2026-04-28 15:46 9.62741 -70.16498 36067 ft 439 kts 242°
2026-04-28 15:47 9.59923 -70.21991 36062 ft 439 kts 242°
2026-04-28 15:47 9.57100 -70.27491 36065 ft 440 kts 242°
2026-04-28 15:48 9.54282 -70.32980 36055 ft 440 kts 242°
2026-04-28 15:48 9.51445 -70.38501 36048 ft 441 kts 242°
2026-04-28 15:49 9.48624 -70.43989 36046 ft 441 kts 242°
2026-04-28 15:49 9.45797 -70.49488 36035 ft 442 kts 242°
2026-04-28 15:50 9.42945 -70.55031 36040 ft 442 kts 241°
2026-04-28 15:50 9.39638 -70.60253 36032 ft 441 kts 234°
2026-04-28 15:51 9.36077 -70.65295 36029 ft 441 kts 234°
2026-04-28 15:51 9.32551 -70.70366 36041 ft 440 kts 235°
2026-04-28 15:52 9.29051 -70.75459 36039 ft 441 kts 235°
2026-04-28 15:52 9.25515 -70.80594 36039 ft 441 kts 235°
2026-04-28 15:53 9.22017 -70.85663 36050 ft 441 kts 235°
2026-04-28 15:53 9.18512 -70.90743 36047 ft 441 kts 235°
2026-04-28 15:54 9.15005 -70.95825 36054 ft 441 kts 235°
2026-04-28 15:54 9.11493 -71.00911 36057 ft 441 kts 235°
2026-04-28 15:55 9.07961 -71.06026 36059 ft 441 kts 235°
2026-04-28 15:55 9.04449 -71.11110 36064 ft 442 kts 235°
2026-04-28 15:56 9.00934 -71.16196 36059 ft 442 kts 235°
2026-04-28 15:56 8.97407 -71.21298 36057 ft 442 kts 235°
2026-04-28 15:57 8.93896 -71.26375 36047 ft 442 kts 235°
2026-04-28 15:57 8.90958 -71.30622 36046 ft 443 kts 235°
2026-04-28 15:58 8.87427 -71.35726 36040 ft 443 kts 235°
2026-04-28 15:58 8.83883 -71.40847 36029 ft 444 kts 235°
2026-04-28 15:59 8.80953 -71.45087 36026 ft 444 kts 235°
2026-04-28 15:59 8.76813 -71.51079 36020 ft 444 kts 234°
2026-04-28 16:00 8.73275 -71.56197 36014 ft 445 kts 234°
2026-04-28 16:00 8.69738 -71.61313 36006 ft 445 kts 235°
2026-04-28 16:01 8.66198 -71.66430 36009 ft 445 kts 235°
2026-04-28 16:01 8.62636 -71.71577 36005 ft 445 kts 235°
2026-04-28 16:02 8.59102 -71.76682 36008 ft 445 kts 235°
2026-04-28 16:02 8.55550 -71.81810 36010 ft 445 kts 234°
2026-04-28 16:03 8.51996 -71.86940 36012 ft 445 kts 234°
2026-04-28 16:03 8.48444 -71.92065 36015 ft 445 kts 234°
2026-04-28 16:04 8.46656 -71.94643 37445 ft 449 kts 235°
2026-04-28 16:04 8.44851 -71.97246 37200 ft 455 kts 235°
2026-04-28 16:04 8.43015 -71.99894 36960 ft 457 kts 235°
2026-04-28 16:04 8.41807 -72.01635 36797 ft 457 kts 235°
2026-04-28 16:05 8.39979 -72.04270 36548 ft 458 kts 235°
2026-04-28 16:05 8.37547 -72.07775 36259 ft 457 kts 235°
2026-04-28 16:05 8.35734 -72.10388 36132 ft 453 kts 235°
2026-04-28 16:05 8.34532 -72.12120 36089 ft 450 kts 235°
2026-04-28 16:06 8.30954 -72.17275 36006 ft 443 kts 235°
2026-04-28 16:06 8.27379 -72.22422 36011 ft 449 kts 235°
2026-04-28 16:07 8.23608 -72.27399 35998 ft 455 kts 225°
2026-04-28 16:08 8.16206 -72.33406 35997 ft 457 kts 217°
2026-04-28 16:08 8.11128 -72.37332 36000 ft 458 kts 218°
2026-04-28 16:09 8.03632 -72.43239 35999 ft 457 kts 218°
2026-04-28 16:10 7.96155 -72.49145 35997 ft 454 kts 218°
2026-04-28 16:10 7.89819 -72.56159 36007 ft 451 kts 235°
2026-04-28 16:11 7.82699 -72.66573 36003 ft 449 kts 235°
2026-04-28 16:12 7.77330 -72.74300 36005 ft 449 kts 234°
2026-04-28 16:13 7.71935 -72.82024 36002 ft 449 kts 234°
2026-04-28 16:14 7.64740 -72.92325 36000 ft 450 kts 234°
2026-04-28 16:15 7.57500 -73.02684 36002 ft 452 kts 234°
2026-04-28 16:15 7.53854 -73.07899 35997 ft 453 kts 234°
2026-04-28 16:16 7.48434 -73.15647 36005 ft 454 kts 234°
2026-04-28 16:17 7.42961 -73.23468 36002 ft 454 kts 234°
2026-04-28 16:17 7.39333 -73.28649 36002 ft 453 kts 234°
2026-04-28 16:18 7.35693 -73.33847 36003 ft 453 kts 234°
2026-04-28 16:18 7.32084 -73.38997 35998 ft 453 kts 234°
2026-04-28 16:19 7.28435 -73.44205 35998 ft 452 kts 234°
2026-04-28 16:19 7.24811 -73.49374 36000 ft 452 kts 234°
2026-04-28 16:20 7.21336 -73.54329 36003 ft 451 kts 234°
2026-04-28 16:20 7.17722 -73.59481 36005 ft 451 kts 234°
2026-04-28 16:21 7.14113 -73.64625 36000 ft 451 kts 234°
2026-04-28 16:21 7.10481 -73.69800 36004 ft 451 kts 234°
2026-04-28 16:22 7.06866 -73.74950 36002 ft 451 kts 234°
2026-04-28 16:22 7.03269 -73.80074 36001 ft 451 kts 235°
2026-04-28 16:23 7.00014 -73.85502 36006 ft 451 kts 240°
2026-04-28 16:23 6.97004 -73.91001 36001 ft 451 kts 241°
2026-04-28 16:24 6.93951 -73.96554 36003 ft 451 kts 240°
2026-04-28 16:24 6.90890 -74.02046 36003 ft 451 kts 240°
2026-04-28 16:25 6.87793 -74.07573 36002 ft 452 kts 240°
2026-04-28 16:25 6.84711 -74.13066 36005 ft 452 kts 240°
2026-04-28 16:26 6.81618 -74.18580 36001 ft 452 kts 240°
2026-04-28 16:26 6.78538 -74.24073 36005 ft 452 kts 240°
2026-04-28 16:27 6.76977 -74.26855 35560 ft 459 kts 240°
2026-04-28 16:27 6.75404 -74.29658 34982 ft 458 kts 240°
2026-04-28 16:27 6.72284 -74.35218 33712 ft 457 kts 240°
2026-04-28 16:28 6.70720 -74.38004 33242 ft 452 kts 240°
2026-04-28 16:28 6.69701 -74.39818 32919 ft 449 kts 240°
2026-04-28 16:28 6.67651 -74.43469 32274 ft 444 kts 240°
2026-04-28 16:28 6.66156 -74.46131 31806 ft 440 kts 240°
2026-04-28 16:29 6.63154 -74.51476 30856 ft 433 kts 240°
2026-04-28 16:29 6.60220 -74.56696 29925 ft 426 kts 240°
2026-04-28 16:30 6.58759 -74.59294 29448 ft 423 kts 240°
2026-04-28 16:30 6.57314 -74.61865 28974 ft 420 kts 240°
2026-04-28 16:30 6.55889 -74.64398 28488 ft 416 kts 240°
2026-04-28 16:30 6.54474 -74.66915 28029 ft 413 kts 240°
2026-04-28 16:31 6.53068 -74.69417 27559 ft 410 kts 240°
2026-04-28 16:31 6.51663 -74.71916 27090 ft 406 kts 240°
2026-04-28 16:31 6.50278 -74.74379 26636 ft 403 kts 240°
2026-04-28 16:31 6.48932 -74.76771 26195 ft 400 kts 240°
2026-04-28 16:32 6.47528 -74.79268 25719 ft 397 kts 240°
2026-04-28 16:32 6.44839 -74.84048 24815 ft 391 kts 240°
2026-04-28 16:32 6.43513 -74.86404 24373 ft 389 kts 240°
2026-04-28 16:33 6.42181 -74.88771 23928 ft 386 kts 240°
2026-04-28 16:33 6.41295 -74.90345 23633 ft 384 kts 240°
2026-04-28 16:33 6.39553 -74.93440 23050 ft 380 kts 240°
2026-04-28 16:33 6.38264 -74.95730 22617 ft 377 kts 240°
2026-04-28 16:34 6.36984 -74.98002 22187 ft 375 kts 240°
2026-04-28 16:34 6.35899 -74.99930 21819 ft 372 kts 240°
2026-04-28 16:34 6.34618 -75.02204 21390 ft 370 kts 240°
2026-04-28 16:34 6.33353 -75.04449 20964 ft 367 kts 240°
2026-04-28 16:35 6.32092 -75.06689 20537 ft 365 kts 240°
2026-04-28 16:35 6.30845 -75.08903 20106 ft 363 kts 240°
2026-04-28 16:35 6.29615 -75.11085 19700 ft 360 kts 240°
2026-04-28 16:35 6.28384 -75.13270 19284 ft 358 kts 240°
2026-04-28 16:36 6.27151 -75.15458 18860 ft 356 kts 240°
2026-04-28 16:36 6.25946 -75.17595 18433 ft 354 kts 240°
2026-04-28 16:36 6.24723 -75.19765 17739 ft 360 kts 240°
2026-04-28 16:36 6.23507 -75.21923 17523 ft 351 kts 240°
2026-04-28 16:37 6.22340 -75.23994 17364 ft 341 kts 240°
2026-04-28 16:37 6.21185 -75.26041 17207 ft 331 kts 240°
2026-04-28 16:37 6.20080 -75.28001 17071 ft 322 kts 240°
2026-04-28 16:38 6.17393 -75.31384 16812 ft 303 kts 210°
2026-04-28 16:38 6.15438 -75.32133 16514 ft 301 kts 190°
2026-04-28 16:38 6.13368 -75.32211 16241 ft 298 kts 178°
2026-04-28 16:38 6.11291 -75.32088 15937 ft 297 kts 176°
2026-04-28 16:39 6.09253 -75.31938 15639 ft 295 kts 176°
2026-04-28 16:39 6.07204 -75.31788 15295 ft 295 kts 176°
2026-04-28 16:39 6.05152 -75.31645 14984 ft 294 kts 176°
2026-04-28 16:39 6.03141 -75.31511 14749 ft 286 kts 176°
2026-04-28 16:40 6.01228 -75.31388 14660 ft 266 kts 176°
2026-04-28 16:40 5.99423 -75.31274 14524 ft 250 kts 177°
2026-04-28 16:40 5.97732 -75.31168 14305 ft 239 kts 177°
2026-04-28 16:40 5.96027 -75.31063 13838 ft 243 kts 177°
2026-04-28 16:41 5.94329 -75.30957 13542 ft 238 kts 177°
2026-04-28 16:41 5.92735 -75.30859 13423 ft 227 kts 177°
2026-04-28 16:41 5.91182 -75.30762 13327 ft 221 kts 177°
2026-04-28 16:41 5.89648 -75.30747 13238 ft 224 kts 193°
2026-04-28 16:42 5.88292 -75.31483 13122 ft 223 kts 228°
2026-04-28 16:42 5.87638 -75.32840 12898 ft 223 kts 262°
2026-04-28 16:42 5.87552 -75.34412 12698 ft 222 kts 269°
2026-04-28 16:42 5.87557 -75.35965 12460 ft 224 kts 270°
2026-04-28 16:43 5.87562 -75.37530 12224 ft 225 kts 269°
2026-04-28 16:43 5.87561 -75.39098 11987 ft 225 kts 269°
2026-04-28 16:43 5.87854 -75.40618 11698 ft 222 kts 301°
2026-04-28 16:43 5.89009 -75.41579 11646 ft 221 kts 342°
2026-04-28 16:44 5.90509 -75.41850 11644 ft 222 kts 351°
2026-04-28 16:44 5.92080 -75.42057 11354 ft 229 kts 354°
2026-04-28 16:44 5.93670 -75.42151 11073 ft 228 kts 358°
2026-04-28 16:44 5.95245 -75.42176 10779 ft 223 kts 359°
2026-04-28 16:45 5.96261 -75.42183 10582 ft 220 kts 359°
2026-04-28 16:45 5.98280 -75.42194 10191 ft 214 kts 359°
2026-04-28 16:45 5.99744 -75.42203 9923 ft 208 kts 359°
2026-04-28 16:45 6.01180 -75.42212 9634 ft 202 kts 359°
2026-04-28 16:46 6.02095 -75.42218 9454 ft 195 kts 359°
2026-04-28 16:46 6.03430 -75.42227 9207 ft 190 kts 359°
2026-04-28 16:46 6.04721 -75.42235 8999 ft 180 kts 359°
2026-04-28 16:46 6.05960 -75.42243 8714 ft 170 kts 359°
2026-04-28 16:47 6.07063 -75.42250 8516 ft 154 kts 359°
2026-04-28 16:47 6.08139 -75.42258 8324 ft 157 kts 359°
2026-04-28 16:47 6.09241 -75.42265 8103 ft 160 kts 359°
2026-04-28 16:47 6.10352 -75.42272 7896 ft 159 kts 359°
2026-04-28 16:48 6.11448 -75.42279 7679 ft 158 kts 359°
2026-04-28 16:48 6.12547 -75.42286 7472 ft 158 kts 359°
2026-04-28 16:48 6.13643 -75.42294 7262 ft 157 kts 359°
2026-04-28 16:48 6.14731 -75.42301 7053 ft 156 kts 359°
2026-04-28 16:49 6.15782 -75.42311 6978 ft 135 kts
2026-04-28 16:49 6.16574 -75.42312 6987 ft 91 kts 359°
2026-04-28 16:49 6.17047 -75.42317 7010 ft 48 kts 359°
2026-04-28 16:49 6.17307 -75.42317 7021 ft 33 kts 360°
2026-04-28 16:50 6.17502 -75.42321 7022 ft 26 kts 354°
2026-04-28 16:50 6.17568 -75.42391 7023 ft 12 kts 266°
2026-04-28 16:50 6.17565 -75.42471 7022 ft 11 kts 269°
2026-04-28 16:50 6.17565 -75.42550 7021 ft 11 kts 268°
2026-04-28 16:51 6.17534 -75.42600 7019 ft 6 kts 198°
2026-04-28 16:51 6.17489 -75.42599 7016 ft 6 kts 177°
2026-04-28 16:51 6.17446 -75.42600 7018 ft 6 kts 182°
2026-04-28 16:51 6.17405 -75.42608 7021 ft 6 kts 209°
2026-04-28 16:52 6.17365 -75.42624 7018 ft 6 kts 202°
2026-04-28 16:52 6.17344 -75.42657 7017 ft 6 kts 259°
2026-04-28 16:52 6.17354 -75.42698 7017 ft 6 kts 293°
2026-04-28 16:52 6.17358 -75.42735 7017 ft 2 kts 246°
2026-04-28 16:53 6.17333 -75.42749 7017 ft 4 kts 202°
2026-04-28 16:53 6.17306 -75.42762 7018 ft 4 kts 210°
2026-04-28 16:53 6.17289 -75.42772 7018 ft 0 kts 212°